{"data":{"norad_id":55742,"intl_designator":"2023-028B","name":"STARLINK-5594","alt_names":[],"object_type":"PAYLOAD","status":"ACTIVE","operator":null,"country":"US","launch_date":"2023-03-03","launch_site_code":"AFWTR","launch_vehicle":null,"mission":null,"orbit_class":"UNKNOWN","rcs_meters":null,"size_class":null,"mass_kg":null,"dimensions":null,"purposes":["comms"],"wikipedia_slug":null,"has_3d_model":false,"image_url":null,"decayed_at":null,"tle_current":{"epoch":"2026-05-25T04:14:09.942144Z","epoch_age_seconds":55963,"freshness":"FRESH","line1":"1 55742U 23028B   26145.17650396  .00000148  00000+0  20175-4 0  9994","line2":"2 55742  70.0009  51.7490 0002181 279.2774  80.8138 14.98332049177496","mean_motion":14.98332049,"eccentricity":0.0002181,"inclination_deg":70.0009,"raan_deg":51.749,"arg_perigee_deg":279.2774,"mean_anomaly_deg":80.8138,"bstar":2.0175e-5,"rev_number":17749,"period_min":96.106867697388,"perigee_km":570.5337189006,"apogee_km":573.56539027572,"semimajor_km":6950.1865545882,"source":"CELESTRAK","updated_at":"2026-05-25T13:38:17.878045Z"}}}